Weather History for KGLS - May, 2012

Change the Weather History Date:

Friday, May 11, 2012

  Actual Average Record
Temperature  
Mean Temperature 75 °F 76 °F  
Max Temperature 82 °F 82 °F 89 °F (1995)
Min Temperature 67 °F 71 °F 60 °F (1924)
Degree Days  
Heating Degree Days 0 0  
Month to date heating degree days 0 0  
Since 1 July heating degree days 630 1009  
Cooling Degree Days 10 12  
Month to date cooling degree days 160 114  
Year to date cooling degree days 714 357  
Growing Degree Days 24 (Base 50)    
Moisture  
Dew Point 69 °F    
Average Humidity 75    
Maximum Humidity 85    
Minimum Humidity 65    
Precipitation  
Precipitation 0.82 in 0.09 in 1.52 in (1930)
Month to date precipitation 1.38 1.35  
Year to date precipitation 18.66 14.33  
Snow  
Snow 0.00 in - - ()
Month to date snowfall 0.0  
Since 1 July snowfall 0.0  
Snow Depth 0.00 in    
Sea Level Pressure  
Sea Level Pressure 29.85 in    
Wind  
Wind Speed 13 mph (SE)    
Max Wind Speed 32 mph    
Max Gust Speed 44 mph    
Visibility 8 miles    
Events Rain , Thunderstorm    
T = Trace of Precipitation, MM = Missing Value Source: NWS Daily Summary

Daily Weather History Graph

Daily Weather History Graph

Search for Another Location

Airport or City:

Trip Planner

Search our weather history database for the weather conditions in past years. The results will help you decide how hot, cold, wet, or windy it might be!

Date:

Astronomy

May. 11, 2012 Rise Set
Actual Time 6:29 AM CDT 8:02 PM CDT
Civil Twilight 6:03 AM CDT 8:28 PM CDT
Nautical Twilight 5:33 AM CDT 8:58 PM CDT
Astronomical Twilight 5:00 AM CDT 9:31 PM CDT
Moon 12:45 AM CDT (5/11) 11:58 AM CDT (5/11)
Length of Visible Light 14h 24m
Length of Day
13h 32m
Waning Gibbous, 63% of the Moon is Illuminated
May 11
Waning Gibbous
May 12
Last Quarter
May 20
New
May 28
First Quarter
Jun 4
Full

Hourly Weather History & Observations

Time (CDT) Temp. Heat Index Dew Point Humidity Pressure Visibility Wind Dir Wind Speed Gust Speed Precip Events Conditions
12:24 AM 78.8 °F - 71.6 °F 78% 29.85 in 10.0 mi ESE 17.3 mph - N/A   Mostly Cloudy
12:52 AM 79.0 °F - 73.0 °F 82% 29.86 in 10.0 mi SE 13.8 mph 23.0 mph N/A   Mostly Cloudy
1:00 AM 78.8 °F - 71.6 °F 78% 29.85 in 10.0 mi ESE 16.1 mph - N/A   Overcast
1:52 AM 78.1 °F - 73.0 °F 84% 29.82 in 10.0 mi ESE 17.3 mph 24.2 mph 0.00 in   Mostly Cloudy
2:01 AM 78.8 °F - 73.4 °F 83% 29.81 in 9.0 mi ESE 17.3 mph - 0.01 in Rain , Thunderstorm Light Rain
2:18 AM 78.8 °F - 73.4 °F 83% 29.81 in 2.0 mi ESE 16.1 mph - 0.02 in Rain , Thunderstorm Light Thunderstorms and Rain
2:32 AM 78.8 °F - 73.4 °F 83% 29.81 in 1.2 mi ESE 16.1 mph - 0.03 in Rain , Thunderstorm Light Thunderstorms and Rain
2:36 AM 78.8 °F - 73.4 °F 83% 29.80 in 4.0 mi ESE 17.3 mph - 0.04 in Rain , Thunderstorm Light Thunderstorms and Rain
2:49 AM 71.6 °F - 68.0 °F 88% 29.80 in 3.0 mi SW 20.7 mph 33.4 mph 0.16 in Rain , Thunderstorm Heavy Thunderstorms and Rain
2:52 AM 69.1 °F - 66.0 °F 90% 29.81 in 1.8 mi SSW 17.3 mph 33.4 mph 0.33 in Rain , Thunderstorm Heavy Thunderstorms and Rain
2:59 AM 69.8 °F - 66.2 °F 88% 29.83 in 1.8 mi South 15.0 mph 27.6 mph 0.08 in Rain , Thunderstorm Heavy Thunderstorms and Rain
3:02 AM 69.8 °F - 66.2 °F 88% 29.83 in 3.0 mi SSW 15.0 mph 20.7 mph 0.10 in Rain , Thunderstorm Heavy Thunderstorms and Rain
3:23 AM 68.0 °F - 64.4 °F 88% 29.81 in 2.5 mi West 32.2 mph 40.3 mph 0.18 in Rain , Thunderstorm Heavy Rain
3:28 AM 66.2 °F - 64.4 °F 94% 29.81 in 3.0 mi West 28.8 mph 43.7 mph 0.19 in Rain , Thunderstorm Rain
3:34 AM 66.2 °F - 64.4 °F 94% 29.79 in 4.0 mi NW 26.5 mph 43.7 mph 0.19 in Rain Rain
3:45 AM 68.0 °F - 64.4 °F 88% 29.79 in 5.0 mi NW 28.8 mph 40.3 mph 0.22 in Rain , Thunderstorm Heavy Rain
3:52 AM 68.0 °F - 64.9 °F 90% 29.78 in 6.0 mi NW 25.3 mph 38.0 mph 0.23 in Rain , Thunderstorm Rain
4:23 AM 68.0 °F - 64.4 °F 88% 29.81 in 8.0 mi NW 18.4 mph 26.5 mph 0.06 in Rain , Thunderstorm Rain
4:47 AM 69.8 °F - 66.2 °F 88% 29.81 in 6.0 mi North 17.3 mph - 0.14 in Rain Rain
4:52 AM 69.1 °F - 66.0 °F 90% 29.81 in 7.0 mi North 15.0 mph - 0.16 in Rain Rain
5:52 AM 69.1 °F - 66.0 °F 90% 29.85 in 10.0 mi East 6.9 mph - 0.06 in   Mostly Cloudy
6:03 AM 69.8 °F - 66.2 °F 88% 29.84 in 10.0 mi ESE 8.1 mph - 0.01 in Rain , Thunderstorm Light Rain
6:33 AM 71.6 °F - 66.2 °F 83% 29.76 in 10.0 mi East 13.8 mph 25.3 mph 0.04 in Rain Light Rain
6:52 AM 73.0 °F - 66.9 °F 81% 29.83 in 10.0 mi SE 5.8 mph - 0.04 in   Partly Cloudy
7:04 AM 73.4 °F - 66.2 °F 78% 29.85 in 10.0 mi SW 3.5 mph - N/A Thunderstorm Mostly Cloudy
7:17 AM 73.4 °F - 66.2 °F 78% 29.83 in 10.0 mi SE 4.6 mph - N/A   Mostly Cloudy
7:52 AM 73.0 °F - 66.0 °F 79% 29.88 in 10.0 mi South 11.5 mph - N/A   Scattered Clouds
8:52 AM 73.0 °F - 66.0 °F 79% 29.76 in 10.0 mi East 23.0 mph 32.2 mph 0.00 in Rain Light Rain
9:32 AM 73.4 °F - 68.0 °F 83% 29.90 in 10.0 mi SSE 5.8 mph - 0.00 in   Partly Cloudy
9:52 AM 73.9 °F - 68.0 °F 82% 29.90 in 10.0 mi SE 13.8 mph - 0.00 in   Mostly Cloudy
10:21 AM 75.2 °F - 69.8 °F 83% 29.89 in 10.0 mi ESE 12.7 mph - N/A   Scattered Clouds
10:52 AM 77.0 °F - 69.1 °F 76% 29.89 in 10.0 mi East 10.4 mph - N/A   Partly Cloudy
11:52 AM 75.2 °F - 69.8 °F 83% 29.88 in 10.0 mi East 12.7 mph - N/A   Clear
12:52 PM 80.1 °F 83.2 °F 70.0 °F 71% 29.87 in 10.0 mi East 13.8 mph - N/A   Clear
1:52 PM 81.0 °F 84.4 °F 70.0 °F 69% 29.88 in 10.0 mi ESE 15.0 mph - N/A   Clear
2:52 PM 81.0 °F 84.9 °F 71.1 °F 72% 29.89 in 10.0 mi ESE 15.0 mph - N/A   Partly Cloudy
3:52 PM 82.0 °F 86.3 °F 71.1 °F 69% 29.88 in 10.0 mi SE 13.8 mph - N/A   Scattered Clouds
4:52 PM 82.0 °F 85.5 °F 69.1 °F 65% 29.87 in 10.0 mi South 11.5 mph - N/A   Scattered Clouds
5:52 PM 80.1 °F 82.9 °F 69.1 °F 69% 29.86 in 10.0 mi SE 8.1 mph - N/A   Clear
6:52 PM 79.0 °F - 69.1 °F 72% 29.85 in 10.0 mi SE 9.2 mph - N/A   Mostly Cloudy
7:52 PM 78.1 °F - 69.1 °F 74% 29.87 in 10.0 mi ESE 9.2 mph - N/A   Scattered Clouds
8:52 PM 79.0 °F - 69.1 °F 72% 29.90 in 10.0 mi ESE 10.4 mph - N/A   Overcast
9:18 PM 78.8 °F - 69.8 °F 74% 29.90 in 10.0 mi ESE 9.2 mph - N/A   Overcast
9:52 PM 78.1 °F - 69.1 °F 74% 29.91 in 10.0 mi ESE 8.1 mph - N/A   Mostly Cloudy
10:52 PM 78.1 °F - 71.1 °F 79% 29.92 in 10.0 mi SSE 15.0 mph - N/A   Mostly Cloudy
11:52 PM 79.0 °F - 72.0 °F 79% 29.93 in 10.0 mi South 17.3 mph - N/A   Mostly Cloudy